Vorticity
nan nan nan nan nan nan nan nan nan nan nan nan nan nan nan nan nan nan nan nan nan nan nan nan nan nan nan nan nan nan nan nan nan nan nan nan nan nan nan nan nan nan nan
nan 9 8 5 5 5 4 4 4 4 5 5 6 6 6 6 5 5 4 4 3 3 2 5 8 7 6 5 5 6 8 7 8 7 6 5 5 6 4 3 4 6 nan
nan 7 8 10 7 3 5 5 4 4 5 5 5 6 6 7 7 6 6 5 5 5 6 7 6 7 7 6 5 6 5 5 5 5 4 5 7 8 8 5 4 4 nan
nan 5 7 11 9 2 4 5 4 5 5 6 4 5 6 6 7 8 6 6 7 8 8 6 6 6 6 6 6 5 3 -0 2 6 4 6 9 9 7 5 5 4 nan
nan 8 14 7 3 6 5 4 5 5 6 5 5 6 5 6 6 6 7 8 8 7 6 6 5 5 4 4 6 5 3 4 5 5 5 5 9 9 8 6 5 5 nan
nan 10 11 8 4 6 5 5 6 5 6 4 5 6 7 6 6 7 7 6 7 7 5 6 6 4 2 5 8 5 2 6 9 7 6 5 5 10 11 5 6 5 nan
nan 8 11 8 5 9 7 5 5 6 5 5 6 5 6 6 6 6 7 6 5 5 5 3 3 4 5 7 8 8 6 3 6 7 6 6 5 9 8 5 6 6 nan
nan 7 9 9 7 7 7 6 5 6 5 5 6 7 5 6 6 6 6 6 5 4 3 3 3 4 5 4 4 8 10 6 5 7 7 7 6 5 8 8 5 5 nan
nan 6 8 9 10 6 5 5 6 6 6 7 6 7 6 6 6 6 5 4 4 3 3 3 2 4 6 7 5 4 7 11 7 7 8 9 8 5 6 6 7 5 nan
nan 6 7 7 8 8 8 8 8 7 6 7 6 7 6 5 6 5 5 5 5 4 4 3 4 5 6 7 7 5 5 6 7 7 6 9 10 7 6 8 10 7 nan
nan 8 7 7 7 7 8 8 9 8 8 7 6 5 3 4 7 8 6 6 4 4 4 4 5 7 9 5 7 12 10 5 6 7 6 5 5 8 8 9 9 8 nan
nan 5 6 7 7 5 5 7 5 6 8 7 7 7 6 7 7 8 8 7 7 5 6 6 6 10 9 7 7 8 9 7 7 7 7 7 7 7 9 7 7 8 nan
nan 5 7 6 7 6 6 5 6 7 7 7 7 6 6 5 6 7 8 7 7 8 9 9 11 10 6 6 7 6 6 5 6 7 9 8 9 11 7 7 9 8 nan
nan 7 6 6 7 5 6 7 7 6 7 7 8 6 6 5 6 7 7 8 7 8 7 7 8 7 9 8 8 8 8 6 5 7 10 8 6 10 12 8 7 8 nan
nan 7 7 6 6 7 6 6 7 7 7 8 8 7 7 7 6 7 7 7 7 8 8 6 6 6 6 8 7 9 10 9 7 6 8 8 7 9 10 10 8 7 nan
nan 7 7 6 6 7 7 6 7 7 7 8 7 8 7 7 6 6 8 8 8 8 6 8 8 8 6 5 7 8 8 8 7 8 8 9 7 7 9 11 8 8 nan
nan 8 7 5 7 7 6 6 7 8 7 7 8 8 7 6 6 7 9 10 11 10 8 8 8 8 7 7 7 7 8 10 9 8 8 8 6 6 9 10 9 7 nan
nan 9 9 7 6 6 6 6 7 8 8 7 8 8 8 6 7 8 9 9 9 10 10 9 9 9 8 7 8 8 8 9 11 10 8 8 8 7 7 9 9 10 nan
nan 7 9 9 8 5 6 8 9 8 7 8 7 8 6 6 8 9 6 8 8 7 7 8 9 9 8 7 9 9 7 7 9 11 10 9 8 7 7 10 12 12 nan
nan 9 8 8 9 7 5 7 8 8 9 8 7 8 7 7 7 7 7 8 8 6 7 9 8 8 8 8 9 9 8 8 9 11 10 10 9 9 8 8 10 10 nan
nan 9 9 7 7 5 5 6 8 9 7 9 10 9 7 7 9 8 7 8 9 9 8 7 7 8 8 9 9 9 9 7 8 9 9 10 10 10 9 9 9 8 nan
nan 6 7 8 7 5 6 7 8 10 9 10 10 10 9 8 9 8 7 8 8 8 7 8 8 9 7 9 10 8 8 8 8 8 8 8 8 9 9 10 9 8 nan
nan 8 8 9 7 6 5 4 7 8 10 9 9 10 11 9 8 8 8 9 8 8 7 7 9 8 8 8 9 9 8 9 8 8 9 8 8 9 9 8 9 8 nan
nan 7 8 9 7 7 7 5 5 6 7 8 9 9 11 10 8 8 9 9 7 7 8 8 8 8 8 7 7 8 10 9 8 9 9 9 11 11 10 9 10 10 nan
nan 9 8 8 7 8 8 6 4 5 7 9 10 9 9 10 10 9 9 8 7 7 8 8 7 7 7 8 8 7 7 8 9 9 7 8 10 10 12 13 10 9 nan
nan nan nan nan nan nan nan nan nan nan nan nan nan nan nan nan nan nan nan nan nan nan nan nan nan nan nan nan nan nan nan nan nan nan nan nan nan nan nan nan nan nan nan
CAPE
428 1271 2274 1942 1818 1755 1743 1950 2164 2204 1943 1822 1739 1356 1251 1477 1446 1549 1703 1669 1750 1525 1323 1288 1653 1557 1499 1768 1906 2453 2152 2560 2403 2398 2864 3149 2982 2499 3257 3366 3214 2996 2444
742 1499 2817 2525 1996 1861 2470 2201 2207 1974 1983 1982 1957 1885 1644 1281 1351 1427 1545 1653 1560 1505 1429 1344 1367 1929 1601 1799 2154 2006 2070 2044 2194 2047 1865 2590 2912 2967 2787 3102 2968 2939 3267
1099 1743 2511 2772 2414 1681 2033 2042 1916 1878 1951 1859 2057 1931 2041 1776 1640 1425 1418 1475 1409 1360 1303 1264 1540 1537 1719 1990 2093 1988 2082 1990 2005 2086 1977 1270 2310 2412 2650 2568 2872 3006 3043
1429 1535 1650 2285 1327 1300 986 2156 2064 1944 1826 1907 1734 1885 1947 2008 1823 1800 1673 1498 1426 1500 1690 1779 1879 1557 1726 1857 2091 1812 1756 1113 1116 488 311 259 706 1668 2418 2249 2180 2540 2898
1317 1458 1369 2038 1485 1291 1404 2052 2131 1872 1854 1786 2011 1905 1894 1849 1596 1508 1409 1355 1376 1796 1897 2129 1972 1954 1826 1582 1615 1829 1690 1589 1091 62 33 2 254 1602 2106 2528 2610 2504 2249
1383 1701 2467 2499 1149 1395 2113 2182 2000 2088 2069 1973 1957 1699 1797 1811 1584 1516 1420 1688 1819 1957 2029 2118 1844 1818 1820 1651 1720 1975 1181 1382 1271 110 0 86 214 1341 2196 1871 2531 2396 2216
1402 1658 2053 2523 2540 2245 2216 1970 1980 2141 1982 1961 1821 1846 1866 1828 1483 1634 1657 1930 2020 1867 1791 1943 2069 1624 1633 1659 1884 1705 1827 1233 705 361 74 0 177 883 1927 2004 1842 1910 2219
1380 1941 1998 2404 2230 2216 2092 2001 1883 2053 1918 1825 2027 1826 1834 1715 1565 1779 1803 1807 1751 1779 1879 1695 1393 1507 1626 1441 2007 1468 1726 2018 387 386 148 9 165 973 2024 2009 2137 2238 2381
1487 1694 1834 1711 1975 2127 2156 1907 1793 1656 1732 1773 1839 1962 1882 1747 1547 1752 1901 1959 1717 1633 1487 1366 1349 1616 1803 1721 1670 1277 945 452 59 487 586 326 387 1084 2025 2191 2152 2159 2110
1326 1182 1442 1589 1776 1524 1579 863 1445 1644 1605 1782 1806 1944 1830 1657 1680 1747 1739 1757 1465 1324 1291 1160 1214 1391 1696 1441 1457 1844 1817 801 81 400 612 548 953 912 1730 1782 1714 1897 2227
830 1025 1349 1303 1261 1152 1214 989 1471 1513 1560 1876 1726 1816 1864 1056 1084 1098 1571 1599 1504 1404 1327 1249 1342 1509 1838 1078 422 458 1047 172 169 118 169 249 784 1318 1688 1723 1401 1979 1947
854 1002 1093 860 967 837 946 616 404 732 709 907 1047 1108 650 374 352 838 1070 1128 1405 1383 1368 1398 1545 1689 1484 501 21 227 209 274 127 161 162 226 527 1095 1658 1756 1706 1675 1632
740 904 714 729 667 591 492 304 91 181 199 443 678 681 491 132 200 206 214 266 617 572 681 757 911 1145 425 407 291 128 206 286 342 239 191 422 806 1084 1266 1593 1653 1311 1474
427 621 299 529 497 322 172 235 65 130 148 544 392 289 246 238 92 36 68 272 310 181 172 322 609 626 335 146 228 370 203 163 217 335 360 758 1054 1139 1339 1252 1839 1722 1402
237 177 282 352 313 170 107 155 97 53 74 415 153 0 0 30 7 0 65 124 167 61 108 189 503 477 233 310 172 252 394 449 529 483 475 742 1102 1274 1264 1371 1557 2014 1563
71 63 1 204 183 56 30 58 128 24 32 131 233 1 0 0 20 352 311 110 9 6 52 213 461 580 628 49 180 107 364 514 575 789 785 619 668 753 1879 1575 1562 2077 1820
7 3 0 36 160 66 27 28 98 29 6 23 139 375 350 345 412 126 93 0 0 48 74 0 173 563 388 692 662 222 275 415 465 568 882 480 415 184 452 1843 2085 2642 2007
36 0 0 16 156 62 32 17 53 54 0 0 1 14 54 199 266 0 191 70 257 363 267 127 13 313 360 478 285 101 196 196 373 417 624 626 558 166 369 1300 2582 2570 2094
55 0 0 27 91 52 29 3 20 59 0 0 0 0 0 67 158 40 113 196 73 70 25 66 321 178 298 287 421 192 131 123 86 223 634 411 272 580 627 608 1842 2490 2242
71 17 0 74 65 28 10 1 0 10 0 0 0 0 0 9 68 101 139 117 256 8 0 0 278 83 155 135 291 70 29 40 97 410 292 445 538 431 490 690 732 1008 2066
112 31 6 10 26 24 0 0 0 6 0 0 0 0 0 5 90 59 84 384 293 62 0 0 588 0 0 232 167 52 0 7 56 229 552 765 802 695 566 884 773 390 958
140 43 0 20 24 7 9 0 0 0 4 0 0 0 0 23 138 79 221 260 503 61 368 162 231 438 600 307 391 9 151 135 132 122 447 398 587 249 161 752 666 659 796
124 101 45 16 48 18 8 0 0 0 8 0 1 0 1 47 165 103 227 196 386 210 268 0 0 297 388 489 346 405 388 322 21 67 550 546 359 271 37 1 49 401 144
113 207 158 74 34 41 0 0 0 0 0 0 3 10 0 8 110 164 348 370 311 209 145 0 564 396 326 579 387 184 110 25 156 164 90 268 105 105 128 74 42 223 47
107 190 163 114 64 73 0 0 0 0 0 0 3 41 1 0 24 458 551 445 131 175 81 4 0 440 319 468 430 532 135 0 0 146 239 252 154 127 0 0 0 136 2
120 146 137 100 113 72 3 0 0 0 0 0 1 6 12 12 149 504 392 424 254 125 390 537 471 707 439 471 391 591 590 285 154 60 66 27 52 308 6 80 18 108 200